map of WLG home
WLG - Airport
Location
City:  Wellington, Wellington (Te Whanga-nui-a-Tara), New Zealand
Name:Wellington International Airport
ICAO:NZWN
IATA:WLG

Details
Type:Airport (Aerodrome, Airfield)
Use:Public/Civil, International (customs port of entry)
Latitude:41°19'38"S (-41.327221)
Longitude:174°48'19"E (174.805278)
Elevation:41 ft (12 m)
Variation:22.66°E (WMM2015 magnetic declination)
0.06° annual change
Runways:1
Longest:6352 × 148 ft (1936 × 45 m), paved

Time
Time Zone:UTC+12 (DST+13)
Local Time:

Weather
METAR:NZWN 211030Z AUTO 03004KT 9999 NCD 18/12 Q1005 BECMG FM1130 20010KT
TAF:NZWN 202309Z 2100/2200 33020G30KT 9999 SCT020
BECMG 2107/2109 32015KT
BECMG 2111/2113 19010KT
BECMG 2118/2120 36010KT
BECMG 2122/2200 35015G25KT

Related Locations
Nearby:
Farthest:SLM: 12401 mi / 19958 km
Salamanca [Matacán], CL, ES

Find:

   beyond  
but within

Other Information
Maps:
NOTAMs:
Links:
Sources:

  
  • flag of New Zealand
  

Sectional Chart

Flight Planning
at skyvector.com

Satellite Image

Google Maps Satellite view

 

Copyright © 2004-2019 Karl L. Swartz. All rights reserved.
The Great Circle Mapper name and logo are trademarks of the Great Circle Mapper.
All other trademarks mentioned herein belong to their respective owners.
Please see credits for attibutions and further copyright information.

  Follow gcmap on Facebook Follow gcmap on Twitter Follow gcmap on Google+ GCmap on LinkedIn

hCard Microformat

Geo Microformat